BEIDOU-3 M18

Last updated on May 15, 2019, 3:07 a.m. UTC

1 43707U 18093B   19134.45114778 -.00000053  00000-0  00000+0 0  9995
2 43707  54.8782 270.6776 0006747 277.5947 125.4197  1.86231858  3281
UTC
Height (km)
Latitude
Longitude
Inclination
Orbital Period
UTC large
Height (km)
Speed (km/s)
/
Latitude / Longitude
Inclination (degrees)
Orbital Period (minutes)
Azimuth
Elevation
Range (km)
Doppler Factor
iOS Compass Heading
iOS Angle

Next 30 passes for location: Hong Kong

Rise time Rise Azimuth (degrees) Set time Set Azimuth (degrees) Duration Max altitude (degrees)

No matching passes for this satellites